TimePST,TemperatureF,Dew PointF,Humidity,Sea Level PressureIn,VisibilityMPH,Wind Direction,Wind SpeedMPH,Gust SpeedMPH,PrecipitationIn,Events,Conditions,WindDirDegrees,DateUTC
12:56 AM,37.0,34.0,89,29.65,10.0,West,4.6,-,N/A,,Clear,270,2012-11-18 08:56:00
1:56 AM,36.0,34.0,93,29.65,10.0,West,6.9,-,N/A,,Mostly Cloudy,270,2012-11-18 09:56:00
2:56 AM,41.0,37.0,86,29.63,10.0,WSW,3.5,-,N/A,,Overcast,250,2012-11-18 10:56:00
3:56 AM,41.0,37.0,86,29.63,10.0,South,4.6,-,N/A,,Overcast,190,2012-11-18 11:56:00
4:39 AM,39.2,35.6,87,30.03,10.0,Calm,Calm,-,N/A,,Overcast,0,2012-11-18 12:39:00
4:56 AM,39.9,36.0,86,29.65,10.0,Calm,Calm,-,N/A,,Overcast,0,2012-11-18 12:56:00
5:06 AM,39.2,35.6,87,30.03,10.0,Calm,Calm,-,N/A,,Overcast,0,2012-11-18 13:06:00
5:20 AM,39.2,35.6,87,30.03,10.0,Calm,Calm,-,N/A,,Overcast,0,2012-11-18 13:20:00
5:29 AM,39.2,37.4,93,30.04,10.0,WSW,3.5,-,N/A,,Overcast,250,2012-11-18 13:29:00
6:38 AM,41.0,35.6,81,30.05,10.0,SSW,3.5,-,N/A,,Overcast,210,2012-11-18 14:38:00
7:56 AM,43.0,36.0,76,29.68,10.0,SSW,3.5,-,N/A,,Overcast,210,2012-11-18 15:56:00
8:56 AM,45.0,35.1,68,29.69,10.0,SSE,10.4,-,N/A,,Overcast,160,2012-11-18 16:56:00
9:28 AM,44.6,33.8,66,30.09,10.0,South,10.4,-,N/A,,Mostly Cloudy,180,2012-11-18 17:28:00
9:56 AM,46.0,34.0,63,29.71,10.0,SSW,5.8,-,N/A,,Overcast,200,2012-11-18 17:56:00
10:52 AM,46.4,33.8,62,30.10,10.0,SSW,4.6,-,N/A,,Overcast,200,2012-11-18 18:52:00
10:56 AM,46.0,34.0,63,29.71,10.0,SSW,8.1,-,N/A,,Overcast,200,2012-11-18 18:56:00
11:04 AM,46.4,33.8,62,30.09,10.0,SSW,5.8,-,N/A,,Overcast,210,2012-11-18 19:04:00
11:56 AM,48.0,33.1,56,29.68,10.0,South,9.2,-,N/A,,Overcast,180,2012-11-18 19:56:00
12:56 PM,48.9,34.0,56,29.69,10.0,South,11.5,-,N/A,,Overcast,170,2012-11-18 20:56:00
1:56 PM,48.0,34.0,58,29.71,10.0,South,6.9,-,N/A,,Overcast,190,2012-11-18 21:56:00
2:56 PM,48.9,33.1,54,29.69,10.0,South,9.2,-,N/A,,Overcast,190,2012-11-18 22:56:00
3:56 PM,48.0,33.1,56,29.70,10.0,South,12.7,-,N/A,,Overcast,170,2012-11-18 23:56:00
4:56 PM,44.1,33.1,65,29.74,10.0,WSW,6.9,-,N/A,,Mostly Cloudy,240,2012-11-19 00:56:00
5:56 PM,39.0,30.9,73,29.77,10.0,WSW,8.1,-,N/A,,Clear,250,2012-11-19 01:56:00
6:56 PM,35.1,30.0,82,29.80,10.0,SW,5.8,-,N/A,,Clear,230,2012-11-19 02:56:00
7:56 PM,34.0,30.0,85,29.79,10.0,West,4.6,-,N/A,,Clear,260,2012-11-19 03:56:00
8:56 PM,35.1,30.9,85,29.80,10.0,WNW,10.4,-,N/A,,Clear,300,2012-11-19 04:56:00
9:56 PM,34.0,30.0,85,29.81,10.0,WSW,4.6,-,N/A,,Clear,250,2012-11-19 05:56:00
10:56 PM,34.0,30.9,89,29.81,10.0,WNW,6.9,-,N/A,,Clear,300,2012-11-19 06:56:00
11:56 PM,35.1,30.9,85,29.79,10.0,WNW,5.8,-,N/A,,Clear,290,2012-11-19 07:56:00